Year,Month,Day,Hour,Minute,Value (Times are PST for temperature in C)
2013,10,30,00,00,2.90
2013,10,30,00,01,2.90
2013,10,30,00,02,2.90
2013,10,30,00,03,2.90
2013,10,30,00,04,2.90
2013,10,30,00,05,2.90
2013,10,30,00,06,2.90
2013,10,30,00,07,2.90
2013,10,30,00,08,2.90
2013,10,30,00,09,2.90
2013,10,30,00,10,2.90
2013,10,30,00,11,2.90
2013,10,30,00,12,2.80
2013,10,30,00,13,2.80
2013,10,30,00,14,2.80
2013,10,30,00,15,2.80
2013,10,30,00,16,2.80
2013,10,30,00,17,2.80
2013,10,30,00,18,2.80
2013,10,30,00,19,2.80
2013,10,30,00,20,2.80
2013,10,30,00,21,2.80
2013,10,30,00,22,2.80
2013,10,30,00,23,2.80
2013,10,30,00,24,2.80
2013,10,30,00,25,2.80
2013,10,30,00,26,2.80
2013,10,30,00,27,2.90
2013,10,30,00,28,3.00
2013,10,30,00,29,3.00
2013,10,30,00,30,3.10
2013,10,30,00,31,3.10
2013,10,30,00,32,3.10
2013,10,30,00,33,3.00
2013,10,30,00,34,3.00
2013,10,30,00,35,2.90
2013,10,30,00,36,2.90
2013,10,30,00,37,2.90
2013,10,30,00,38,2.90
2013,10,30,00,39,2.90
2013,10,30,00,40,2.80
2013,10,30,00,41,2.80
2013,10,30,00,42,2.80
2013,10,30,00,43,2.70
2013,10,30,00,44,2.70
2013,10,30,00,45,2.70
2013,10,30,00,46,2.60
2013,10,30,00,47,2.60
2013,10,30,00,48,2.60
2013,10,30,00,49,2.50
2013,10,30,00,50,2.50
2013,10,30,00,51,2.50
2013,10,30,00,52,2.50
2013,10,30,00,53,2.50
2013,10,30,00,54,2.50
2013,10,30,00,55,2.50
2013,10,30,00,56,2.60
2013,10,30,00,57,2.60
2013,10,30,00,58,2.70
2013,10,30,00,59,2.70
2013,10,30,01,00,2.70
2013,10,30,01,01,2.70
2013,10,30,01,02,2.70
2013,10,30,01,03,2.70
2013,10,30,01,04,2.70
2013,10,30,01,05,2.70
2013,10,30,01,06,2.70
2013,10,30,01,07,2.70
2013,10,30,01,08,2.70
2013,10,30,01,09,2.70
2013,10,30,01,10,2.70
2013,10,30,01,11,2.70
2013,10,30,01,12,2.70
2013,10,30,01,13,2.70
2013,10,30,01,14,2.70
2013,10,30,01,15,2.70
2013,10,30,01,16,2.60
2013,10,30,01,17,2.60
2013,10,30,01,18,2.60
2013,10,30,01,19,2.60
2013,10,30,01,20,2.60
2013,10,30,01,21,2.60
2013,10,30,01,22,2.60
2013,10,30,01,23,2.60
2013,10,30,01,24,2.60
2013,10,30,01,25,2.60
2013,10,30,01,26,2.60
2013,10,30,01,27,2.60
2013,10,30,01,28,2.60
2013,10,30,01,29,2.60
2013,10,30,01,30,2.60
2013,10,30,01,31,2.50
2013,10,30,01,32,2.50
2013,10,30,01,33,2.50
2013,10,30,01,34,2.50
2013,10,30,01,35,2.40
2013,10,30,01,36,2.40
2013,10,30,01,37,2.40
2013,10,30,01,38,2.40
2013,10,30,01,39,2.40
2013,10,30,01,40,2.40
2013,10,30,01,41,2.40
2013,10,30,01,42,2.40
2013,10,30,01,43,2.40
2013,10,30,01,44,2.30
2013,10,30,01,45,2.30
2013,10,30,01,46,2.30
2013,10,30,01,47,2.30
2013,10,30,01,48,2.40
2013,10,30,01,49,2.40
2013,10,30,01,50,2.40
2013,10,30,01,51,2.40
2013,10,30,01,52,2.40
2013,10,30,01,53,2.40
2013,10,30,01,54,2.40
2013,10,30,01,55,2.40
2013,10,30,01,56,2.30
2013,10,30,01,57,2.30
2013,10,30,01,58,2.30
2013,10,30,01,59,2.30
2013,10,30,02,00,2.30
2013,10,30,02,01,2.30
2013,10,30,02,02,2.30
2013,10,30,02,03,2.30
2013,10,30,02,04,2.30
2013,10,30,02,05,2.30
2013,10,30,02,06,2.30
2013,10,30,02,07,2.30
2013,10,30,02,08,2.20
2013,10,30,02,09,2.20
2013,10,30,02,10,2.20
2013,10,30,02,11,2.20
2013,10,30,02,12,2.20
2013,10,30,02,13,2.20
2013,10,30,02,14,2.20
2013,10,30,02,15,2.20
2013,10,30,02,16,2.20
2013,10,30,02,17,2.20
2013,10,30,02,18,2.20
2013,10,30,02,19,2.20
2013,10,30,02,20,2.20
2013,10,30,02,21,2.20
2013,10,30,02,22,2.10
2013,10,30,02,23,2.10
2013,10,30,02,24,2.10
2013,10,30,02,25,2.10
2013,10,30,02,26,2.10
2013,10,30,02,27,2.10
2013,10,30,02,28,2.00
2013,10,30,02,29,2.00
2013,10,30,02,30,2.00
2013,10,30,02,31,2.00
2013,10,30,02,32,1.90
2013,10,30,02,33,1.90
2013,10,30,02,34,1.90
2013,10,30,02,35,1.90
2013,10,30,02,36,1.90
2013,10,30,02,37,1.90
2013,10,30,02,38,1.90
2013,10,30,02,39,1.80
2013,10,30,02,40,1.80
2013,10,30,02,41,1.80
2013,10,30,02,42,1.80
2013,10,30,02,43,1.90
2013,10,30,02,44,1.90
2013,10,30,02,45,1.90
2013,10,30,02,46,1.90
2013,10,30,02,47,2.00
2013,10,30,02,48,2.00
2013,10,30,02,49,2.00
2013,10,30,02,50,2.10
2013,10,30,02,51,2.10
2013,10,30,02,52,2.10
2013,10,30,02,53,2.10
2013,10,30,02,54,2.10
2013,10,30,02,55,2.10
2013,10,30,02,56,2.10
2013,10,30,02,57,2.10
2013,10,30,02,58,2.10
2013,10,30,02,59,2.10
2013,10,30,03,00,2.20
2013,10,30,03,01,2.20
2013,10,30,03,02,2.20
2013,10,30,03,03,2.20
2013,10,30,03,04,2.20
2013,10,30,03,05,2.20
2013,10,30,03,06,2.20
2013,10,30,03,07,2.20
2013,10,30,03,08,2.10
2013,10,30,03,09,2.10
2013,10,30,03,10,2.10
2013,10,30,03,11,2.10
2013,10,30,03,12,2.10
2013,10,30,03,13,2.10
2013,10,30,03,14,2.10
2013,10,30,03,15,2.10
2013,10,30,03,16,2.10
2013,10,30,03,17,2.10
2013,10,30,03,18,2.10
2013,10,30,03,19,2.10
2013,10,30,03,20,2.10
2013,10,30,03,21,2.10
2013,10,30,03,22,2.10
2013,10,30,03,23,2.10
2013,10,30,03,24,2.10
2013,10,30,03,25,2.10
2013,10,30,03,26,2.20
2013,10,30,03,27,2.20
2013,10,30,03,28,2.20
2013,10,30,03,29,2.20
2013,10,30,03,30,2.20
2013,10,30,03,31,2.20
2013,10,30,03,32,2.20
2013,10,30,03,33,2.20
2013,10,30,03,34,2.20
2013,10,30,03,35,2.30
2013,10,30,03,36,2.30
2013,10,30,03,37,2.30
2013,10,30,03,38,2.30
2013,10,30,03,39,2.30
2013,10,30,03,40,2.20
2013,10,30,03,41,2.20
2013,10,30,03,42,2.30
2013,10,30,03,43,2.20
2013,10,30,03,44,2.30
2013,10,30,03,45,2.30
2013,10,30,03,46,2.30
2013,10,30,03,47,2.30
2013,10,30,03,48,2.30
2013,10,30,03,49,2.30
2013,10,30,03,50,2.30
2013,10,30,03,51,2.40
2013,10,30,03,52,2.40
2013,10,30,03,53,2.40
2013,10,30,03,54,2.40
2013,10,30,03,55,2.40
2013,10,30,03,56,2.40
2013,10,30,03,57,2.50
2013,10,30,03,58,2.50
2013,10,30,03,59,2.50
2013,10,30,04,00,2.60
2013,10,30,04,01,2.60
2013,10,30,04,02,2.60
2013,10,30,04,03,2.70
2013,10,30,04,04,2.70
2013,10,30,04,05,2.70
2013,10,30,04,06,2.80
2013,10,30,04,07,2.80
2013,10,30,04,08,2.80
2013,10,30,04,09,2.80
2013,10,30,04,10,2.80
2013,10,30,04,11,2.90
2013,10,30,04,12,2.90
2013,10,30,04,13,2.90
2013,10,30,04,14,2.90
2013,10,30,04,15,2.90
2013,10,30,04,16,2.90
2013,10,30,04,17,2.90
2013,10,30,04,18,2.90
2013,10,30,04,19,2.90
2013,10,30,04,20,2.90
2013,10,30,04,21,2.90
2013,10,30,04,22,2.90
2013,10,30,04,23,3.00
2013,10,30,04,24,3.00
2013,10,30,04,25,3.00
2013,10,30,04,26,3.00
2013,10,30,04,27,3.00
2013,10,30,04,28,3.00
2013,10,30,04,29,3.00
2013,10,30,04,30,3.00
2013,10,30,04,31,3.00
2013,10,30,04,32,3.00
2013,10,30,04,33,3.00
2013,10,30,04,34,3.00
2013,10,30,04,35,3.00
2013,10,30,04,36,3.10
2013,10,30,04,37,3.00
2013,10,30,04,38,3.10
2013,10,30,04,39,3.10
2013,10,30,04,40,3.10
2013,10,30,04,41,3.10
2013,10,30,04,42,3.10
2013,10,30,04,43,3.10
2013,10,30,04,44,3.10
2013,10,30,04,45,3.10
2013,10,30,04,46,3.10
2013,10,30,04,47,3.10
2013,10,30,04,48,3.10
2013,10,30,04,49,3.20
2013,10,30,04,50,3.20
2013,10,30,04,51,3.20
2013,10,30,04,52,3.20
2013,10,30,04,53,3.20
2013,10,30,04,54,3.20
2013,10,30,04,55,3.30
2013,10,30,04,56,3.30
2013,10,30,04,57,3.30
2013,10,30,04,58,3.30
2013,10,30,04,59,3.30
2013,10,30,05,00,3.30
2013,10,30,05,01,3.30
2013,10,30,05,02,3.30
2013,10,30,05,03,3.30
2013,10,30,05,04,3.30
2013,10,30,05,05,3.30
2013,10,30,05,06,3.30
2013,10,30,05,07,3.30
2013,10,30,05,08,3.30
2013,10,30,05,09,3.40
2013,10,30,05,10,3.40
2013,10,30,05,11,3.40
2013,10,30,05,12,3.40
2013,10,30,05,13,3.40
2013,10,30,05,14,3.40
2013,10,30,05,15,3.40
2013,10,30,05,16,3.40
2013,10,30,05,17,3.40
2013,10,30,05,18,3.40
2013,10,30,05,19,3.40
2013,10,30,05,20,3.40
2013,10,30,05,21,3.40
2013,10,30,05,22,3.40
2013,10,30,05,23,3.50
2013,10,30,05,24,3.50
2013,10,30,05,25,3.50
2013,10,30,05,26,3.50
2013,10,30,05,27,3.50
2013,10,30,05,28,3.60
2013,10,30,05,29,3.60
2013,10,30,05,30,3.60
2013,10,30,05,31,3.60
2013,10,30,05,32,3.60
2013,10,30,05,33,3.60
2013,10,30,05,34,3.60
2013,10,30,05,35,3.60
2013,10,30,05,36,3.60
2013,10,30,05,37,3.60
2013,10,30,05,38,3.60
2013,10,30,05,39,3.60
2013,10,30,05,40,3.70
2013,10,30,05,41,3.70
2013,10,30,05,42,3.70
2013,10,30,05,43,3.70
2013,10,30,05,44,3.70
2013,10,30,05,45,3.70
2013,10,30,05,46,3.70
2013,10,30,05,47,3.70
2013,10,30,05,48,3.70
2013,10,30,05,49,3.70
2013,10,30,05,50,3.70
2013,10,30,05,51,3.70
2013,10,30,05,52,3.70
2013,10,30,05,53,3.70
2013,10,30,05,54,3.70
2013,10,30,05,55,3.70
2013,10,30,05,56,3.70
2013,10,30,05,57,3.70
2013,10,30,05,58,3.70
2013,10,30,05,59,3.70
2013,10,30,06,00,3.70
2013,10,30,06,01,3.70
2013,10,30,06,02,3.70
2013,10,30,06,03,3.70
2013,10,30,06,04,3.70
2013,10,30,06,05,3.70
2013,10,30,06,06,3.70
2013,10,30,06,07,3.70
2013,10,30,06,08,3.70
2013,10,30,06,09,3.70
2013,10,30,06,10,3.70
2013,10,30,06,11,3.70
2013,10,30,06,12,3.70
2013,10,30,06,13,3.70
2013,10,30,06,14,3.70
2013,10,30,06,15,3.70
2013,10,30,06,16,3.70
2013,10,30,06,17,3.70
2013,10,30,06,18,3.80
2013,10,30,06,19,3.80
2013,10,30,06,20,3.80
2013,10,30,06,21,3.80
2013,10,30,06,22,3.80
2013,10,30,06,23,3.80
2013,10,30,06,24,3.80
2013,10,30,06,25,3.80
2013,10,30,06,26,3.80
2013,10,30,06,27,3.80
2013,10,30,06,28,3.80
2013,10,30,06,29,3.80
2013,10,30,06,30,3.80
2013,10,30,06,31,3.80
2013,10,30,06,32,3.80
2013,10,30,06,33,3.80
2013,10,30,06,34,3.80
2013,10,30,06,35,3.90
2013,10,30,06,36,3.90
2013,10,30,06,37,3.90
2013,10,30,06,38,3.90
2013,10,30,06,39,3.90
2013,10,30,06,40,3.90
2013,10,30,06,41,3.90
2013,10,30,06,42,3.90
2013,10,30,06,43,3.90
2013,10,30,06,44,3.90
2013,10,30,06,45,3.90
2013,10,30,06,46,3.90
2013,10,30,06,47,3.90
2013,10,30,06,48,3.90
2013,10,30,06,49,3.90
2013,10,30,06,50,4.00
2013,10,30,06,51,4.00
2013,10,30,06,52,4.00
2013,10,30,06,53,4.00
2013,10,30,06,54,4.00
2013,10,30,06,55,4.00
2013,10,30,06,56,4.00
2013,10,30,06,57,4.10
2013,10,30,06,58,4.10
2013,10,30,06,59,4.10
2013,10,30,07,00,4.10
2013,10,30,07,01,4.10
2013,10,30,07,02,4.10
2013,10,30,07,03,4.10
2013,10,30,07,04,4.10
2013,10,30,07,05,4.20
2013,10,30,07,06,4.20
2013,10,30,07,07,4.20
2013,10,30,07,08,4.20
2013,10,30,07,09,4.20
2013,10,30,07,10,4.20
2013,10,30,07,11,4.20
2013,10,30,07,12,4.20
2013,10,30,07,13,4.20
2013,10,30,07,14,4.20
2013,10,30,07,15,4.20
2013,10,30,07,16,4.20
2013,10,30,07,17,4.20
2013,10,30,07,18,4.20
2013,10,30,07,19,4.20
2013,10,30,07,20,4.20
2013,10,30,07,21,4.20
2013,10,30,07,22,4.20
2013,10,30,07,23,4.20
2013,10,30,07,24,4.20
2013,10,30,07,25,4.20
2013,10,30,07,26,4.20
2013,10,30,07,27,4.20
2013,10,30,07,28,4.20
2013,10,30,07,29,4.20
2013,10,30,07,30,4.20
2013,10,30,07,31,4.20
2013,10,30,07,32,4.20
2013,10,30,07,33,4.20
2013,10,30,07,34,4.20
2013,10,30,07,35,4.20
2013,10,30,07,36,4.20
2013,10,30,07,37,4.30
2013,10,30,07,38,4.30
2013,10,30,07,39,4.30
2013,10,30,07,40,4.30
2013,10,30,07,41,4.30
2013,10,30,07,42,4.30
2013,10,30,07,43,4.30
2013,10,30,07,44,4.30
2013,10,30,07,45,4.30
2013,10,30,07,46,4.30
2013,10,30,07,47,4.30
2013,10,30,07,48,4.30
2013,10,30,07,49,4.30
2013,10,30,07,50,4.30
2013,10,30,07,51,4.30
2013,10,30,07,52,4.30
2013,10,30,07,53,4.30
2013,10,30,07,54,4.30
2013,10,30,07,55,4.30
2013,10,30,07,56,4.30
2013,10,30,07,57,4.30
2013,10,30,07,58,4.30
2013,10,30,07,59,4.30
2013,10,30,08,00,4.30
2013,10,30,08,01,4.30
2013,10,30,08,02,4.30
2013,10,30,08,03,4.40
2013,10,30,08,04,4.40
2013,10,30,08,05,4.40
2013,10,30,08,06,4.40
2013,10,30,08,07,4.40
2013,10,30,08,08,4.40
2013,10,30,08,09,4.40
2013,10,30,08,10,4.50
2013,10,30,08,11,4.50
2013,10,30,08,12,4.50
2013,10,30,08,13,4.50
2013,10,30,08,14,4.50
2013,10,30,08,15,4.50
2013,10,30,08,16,4.50
2013,10,30,08,17,4.50
2013,10,30,08,18,4.50
2013,10,30,08,19,4.60
2013,10,30,08,20,4.60
2013,10,30,08,21,4.60
2013,10,30,08,22,4.60
2013,10,30,08,23,4.60
2013,10,30,08,24,4.60
2013,10,30,08,25,4.70
2013,10,30,08,26,4.70
2013,10,30,08,27,4.70
2013,10,30,08,28,4.70
2013,10,30,08,29,4.70
2013,10,30,08,30,4.70
2013,10,30,08,31,4.80
2013,10,30,08,32,4.80
2013,10,30,08,33,4.80
2013,10,30,08,34,4.80
2013,10,30,08,35,4.80
2013,10,30,08,36,4.90
2013,10,30,08,37,4.90
2013,10,30,08,38,4.90
2013,10,30,08,39,4.90
2013,10,30,08,40,4.90
2013,10,30,08,41,4.90
2013,10,30,08,42,5.00
2013,10,30,08,43,5.00
2013,10,30,08,44,5.10
2013,10,30,08,45,5.10
2013,10,30,08,46,5.10
2013,10,30,08,47,5.10
2013,10,30,08,48,5.20
2013,10,30,08,49,5.20
2013,10,30,08,50,5.20
2013,10,30,08,51,5.30
2013,10,30,08,52,5.30
2013,10,30,08,53,5.30
2013,10,30,08,54,5.30
2013,10,30,08,55,5.40
2013,10,30,08,56,5.40
2013,10,30,08,57,5.50
2013,10,30,08,58,5.50
2013,10,30,08,59,5.50
2013,10,30,09,00,5.60
2013,10,30,09,01,5.60
2013,10,30,09,02,5.60
2013,10,30,09,03,5.70
2013,10,30,09,04,5.70
2013,10,30,09,05,5.70
2013,10,30,09,06,5.80
2013,10,30,09,07,5.80
2013,10,30,09,08,5.80
2013,10,30,09,09,5.80
2013,10,30,09,10,5.90
2013,10,30,09,11,5.90
2013,10,30,09,12,6.00
2013,10,30,09,13,6.00
2013,10,30,09,14,6.00
2013,10,30,09,15,6.10
2013,10,30,09,16,6.10
2013,10,30,09,17,6.20
2013,10,30,09,18,6.20
2013,10,30,09,19,6.20
2013,10,30,09,20,6.20
2013,10,30,09,21,6.30
2013,10,30,09,22,6.30
2013,10,30,09,23,6.30
2013,10,30,09,24,6.30
2013,10,30,09,25,6.40
2013,10,30,09,26,6.40
2013,10,30,09,27,6.40
2013,10,30,09,28,6.50
2013,10,30,09,29,6.50
2013,10,30,09,30,6.50
2013,10,30,09,31,6.60
2013,10,30,09,32,6.60
2013,10,30,09,33,6.60
2013,10,30,09,34,6.70
2013,10,30,09,35,6.70
2013,10,30,09,36,6.70
2013,10,30,09,37,6.70
2013,10,30,09,38,6.80
2013,10,30,09,39,6.80
2013,10,30,09,40,6.80
2013,10,30,09,41,6.80
2013,10,30,09,42,6.80
2013,10,30,09,43,6.90
2013,10,30,09,44,6.90
2013,10,30,09,45,6.90
2013,10,30,09,46,6.90
2013,10,30,09,47,6.90
2013,10,30,09,48,6.90
2013,10,30,09,49,6.90
2013,10,30,09,50,7.00
2013,10,30,09,51,7.00
2013,10,30,09,52,7.00
2013,10,30,09,53,7.00
2013,10,30,09,54,7.00
2013,10,30,09,55,7.10
2013,10,30,09,56,7.10
2013,10,30,09,57,7.10
2013,10,30,09,58,7.20
2013,10,30,09,59,7.20
2013,10,30,10,00,7.20
2013,10,30,10,01,7.20
2013,10,30,10,02,7.30
2013,10,30,10,03,7.40
2013,10,30,10,04,7.40
2013,10,30,10,05,7.50
2013,10,30,10,06,7.60
2013,10,30,10,07,7.70
2013,10,30,10,08,7.80
2013,10,30,10,09,7.90
2013,10,30,10,10,8.00
2013,10,30,10,11,8.00
2013,10,30,10,12,8.10
2013,10,30,10,13,8.20
2013,10,30,10,14,8.20
2013,10,30,10,15,8.30
2013,10,30,10,16,8.30
2013,10,30,10,17,8.40
2013,10,30,10,18,8.40
2013,10,30,10,19,8.50
2013,10,30,10,20,8.50
2013,10,30,10,21,8.50
2013,10,30,10,22,8.50
2013,10,30,10,23,8.50
2013,10,30,10,24,8.50
2013,10,30,10,25,8.60
2013,10,30,10,26,8.60
2013,10,30,10,27,8.70
2013,10,30,10,28,8.70
2013,10,30,10,29,8.80
2013,10,30,10,30,8.80
2013,10,30,10,31,8.80
2013,10,30,10,32,8.70
2013,10,30,10,33,8.70
2013,10,30,10,34,8.70
2013,10,30,10,35,8.70
2013,10,30,10,36,8.70
2013,10,30,10,37,8.70
2013,10,30,10,38,8.70
2013,10,30,10,39,8.80
2013,10,30,10,40,8.80
2013,10,30,10,41,8.80
2013,10,30,10,42,8.80
2013,10,30,10,43,8.90
2013,10,30,10,44,8.90
2013,10,30,10,45,8.90
2013,10,30,10,46,8.90
2013,10,30,10,47,8.90
2013,10,30,10,48,8.90
2013,10,30,10,49,8.80
2013,10,30,10,50,8.80
2013,10,30,10,51,8.80
2013,10,30,10,52,8.80
2013,10,30,10,53,8.80
2013,10,30,10,54,8.80
2013,10,30,10,55,8.80
2013,10,30,10,56,8.90
2013,10,30,10,57,9.00
2013,10,30,10,58,9.00
2013,10,30,10,59,9.00
2013,10,30,11,00,9.10
2013,10,30,11,01,9.10
2013,10,30,11,02,9.00
2013,10,30,11,03,9.00
2013,10,30,11,04,9.00
2013,10,30,11,05,9.10
2013,10,30,11,06,9.10
2013,10,30,11,07,9.20
2013,10,30,11,08,9.20
2013,10,30,11,09,9.10
2013,10,30,11,10,9.10
2013,10,30,11,11,9.10
2013,10,30,11,12,9.10
2013,10,30,11,13,9.20
2013,10,30,11,14,9.20
2013,10,30,11,15,9.20
2013,10,30,11,16,9.30
2013,10,30,11,17,9.30
2013,10,30,11,18,9.30
2013,10,30,11,19,9.30
2013,10,30,11,20,9.20
2013,10,30,11,21,9.20
2013,10,30,11,22,9.20
2013,10,30,11,23,9.20
2013,10,30,11,24,9.20
2013,10,30,11,25,9.20
2013,10,30,11,26,9.10
2013,10,30,11,27,9.10
2013,10,30,11,28,9.10
2013,10,30,11,29,9.10
2013,10,30,11,30,9.10
2013,10,30,11,31,9.10
2013,10,30,11,32,9.10
2013,10,30,11,33,9.20
2013,10,30,11,34,9.20
2013,10,30,11,35,9.20
2013,10,30,11,36,9.20
2013,10,30,11,37,9.20
2013,10,30,11,38,9.20
2013,10,30,11,39,9.10
2013,10,30,11,40,9.10
2013,10,30,11,41,9.20
2013,10,30,11,42,9.20
2013,10,30,11,43,9.20
2013,10,30,11,44,9.30
2013,10,30,11,45,9.30
2013,10,30,11,46,9.40
2013,10,30,11,47,9.40
2013,10,30,11,48,9.40
2013,10,30,11,49,9.40
2013,10,30,11,50,9.30
2013,10,30,11,51,9.20
2013,10,30,11,52,9.20
2013,10,30,11,53,9.10
2013,10,30,11,54,9.10
2013,10,30,11,55,9.10
2013,10,30,11,56,9.10
2013,10,30,11,57,9.10
2013,10,30,11,58,9.10
2013,10,30,11,59,9.10
2013,10,30,12,00,9.10
2013,10,30,12,01,9.10
2013,10,30,12,02,9.10
2013,10,30,12,03,9.10
2013,10,30,12,04,9.00
2013,10,30,12,05,8.90
2013,10,30,12,06,8.90
2013,10,30,12,07,8.80
2013,10,30,12,08,8.80
2013,10,30,12,09,8.80
2013,10,30,12,10,8.80
2013,10,30,12,11,8.70
2013,10,30,12,12,8.70
2013,10,30,12,13,8.70
2013,10,30,12,14,8.70
2013,10,30,12,15,8.70
2013,10,30,12,16,8.70
2013,10,30,12,17,8.70
2013,10,30,12,18,8.70
2013,10,30,12,19,8.60
2013,10,30,12,20,8.60
2013,10,30,12,21,8.60
2013,10,30,12,22,8.60
2013,10,30,12,23,8.60
2013,10,30,12,24,8.60
2013,10,30,12,25,8.60
2013,10,30,12,26,8.60
2013,10,30,12,27,8.50
2013,10,30,12,28,8.50
2013,10,30,12,29,8.50
2013,10,30,12,30,8.50
2013,10,30,12,31,8.60
2013,10,30,12,32,8.60
2013,10,30,12,33,8.60
2013,10,30,12,34,8.60
2013,10,30,12,35,8.60
2013,10,30,12,36,8.60
2013,10,30,12,37,8.60
2013,10,30,12,38,8.60
2013,10,30,12,39,8.50
2013,10,30,12,40,8.50
2013,10,30,12,41,8.40
2013,10,30,12,42,8.40
2013,10,30,12,43,8.40
2013,10,30,12,44,8.40
2013,10,30,12,45,8.40
2013,10,30,12,46,8.40
2013,10,30,12,47,8.50
2013,10,30,12,48,8.50
2013,10,30,12,49,8.50
2013,10,30,12,50,8.50
2013,10,30,12,51,8.50
2013,10,30,12,52,8.60
2013,10,30,12,53,8.60
2013,10,30,12,54,8.60
2013,10,30,12,55,8.60
2013,10,30,12,56,8.60
2013,10,30,12,57,8.60
2013,10,30,12,58,8.60
2013,10,30,12,59,8.50
2013,10,30,13,00,8.50
2013,10,30,13,01,8.50
2013,10,30,13,02,8.60
2013,10,30,13,03,8.60
2013,10,30,13,04,8.60
2013,10,30,13,05,8.60
2013,10,30,13,06,8.60
2013,10,30,13,07,8.60
2013,10,30,13,08,8.70
2013,10,30,13,09,8.70
2013,10,30,13,10,8.70
2013,10,30,13,11,8.60
2013,10,30,13,12,8.60
2013,10,30,13,13,8.60
2013,10,30,13,14,8.60
2013,10,30,13,15,8.70
2013,10,30,13,16,8.70
2013,10,30,13,17,8.80
2013,10,30,13,18,8.80
2013,10,30,13,19,8.90
2013,10,30,13,20,9.00
2013,10,30,13,21,9.10
2013,10,30,13,22,9.10
2013,10,30,13,23,9.10
2013,10,30,13,24,9.00
2013,10,30,13,25,9.00
2013,10,30,13,26,9.10
2013,10,30,13,27,9.10
2013,10,30,13,28,9.10
2013,10,30,13,29,9.10
2013,10,30,13,30,9.20
2013,10,30,13,31,9.10
2013,10,30,13,32,9.10
2013,10,30,13,33,9.10
2013,10,30,13,34,9.10
2013,10,30,13,35,9.10
2013,10,30,13,36,9.00
2013,10,30,13,37,9.00
2013,10,30,13,38,9.00
2013,10,30,13,39,8.90
2013,10,30,13,40,8.90
2013,10,30,13,41,8.90
2013,10,30,13,42,8.80
2013,10,30,13,43,8.70
2013,10,30,13,44,8.70
2013,10,30,13,45,8.70
2013,10,30,13,46,8.70
2013,10,30,13,47,8.70
2013,10,30,13,48,8.70
2013,10,30,13,49,8.70
2013,10,30,13,50,8.70
2013,10,30,13,51,8.70
2013,10,30,13,52,8.70
2013,10,30,13,53,8.70
2013,10,30,13,54,8.70
2013,10,30,13,55,8.70
2013,10,30,13,56,8.70
2013,10,30,13,57,8.70
2013,10,30,13,58,8.70
2013,10,30,13,59,8.70
2013,10,30,14,00,8.70
2013,10,30,14,01,8.70
2013,10,30,14,02,8.70
2013,10,30,14,03,8.70
2013,10,30,14,04,8.70
2013,10,30,14,05,8.70
2013,10,30,14,06,8.70
2013,10,30,14,07,8.70
2013,10,30,14,08,8.80
2013,10,30,14,09,8.90
2013,10,30,14,10,8.90
2013,10,30,14,11,8.90
2013,10,30,14,12,8.90
2013,10,30,14,13,9.00
2013,10,30,14,14,9.00
2013,10,30,14,15,9.10
2013,10,30,14,16,9.20
2013,10,30,14,17,9.20
2013,10,30,14,18,9.20
2013,10,30,14,19,9.20
2013,10,30,14,20,9.20
2013,10,30,14,21,9.20
2013,10,30,14,22,9.10
2013,10,30,14,23,9.10
2013,10,30,14,24,9.10
2013,10,30,14,25,9.00
2013,10,30,14,26,9.00
2013,10,30,14,27,8.90
2013,10,30,14,28,8.90
2013,10,30,14,29,8.90
2013,10,30,14,30,8.90
2013,10,30,14,31,8.90
2013,10,30,14,32,8.90
2013,10,30,14,33,8.90
2013,10,30,14,34,8.90
2013,10,30,14,35,8.80
2013,10,30,14,36,8.80
2013,10,30,14,37,8.80
2013,10,30,14,38,8.80
2013,10,30,14,39,8.80
2013,10,30,14,40,8.70
2013,10,30,14,41,8.70
2013,10,30,14,42,8.70
2013,10,30,14,43,8.70
2013,10,30,14,44,8.80
2013,10,30,14,45,8.80
2013,10,30,14,46,8.80
2013,10,30,14,47,8.80
2013,10,30,14,48,8.80
2013,10,30,14,49,8.80
2013,10,30,14,50,8.80
2013,10,30,14,51,8.80
2013,10,30,14,52,8.80
2013,10,30,14,53,8.70
2013,10,30,14,54,8.70
2013,10,30,14,55,8.60
2013,10,30,14,56,8.60
2013,10,30,14,57,8.60
2013,10,30,14,58,8.60
2013,10,30,14,59,8.50
2013,10,30,15,00,8.50
2013,10,30,15,01,8.50
2013,10,30,15,02,8.40
2013,10,30,15,03,8.40
2013,10,30,15,04,8.40
2013,10,30,15,05,8.50
2013,10,30,15,06,8.50
2013,10,30,15,07,8.60
2013,10,30,15,08,8.60
2013,10,30,15,09,8.60
2013,10,30,15,10,8.70
2013,10,30,15,11,8.70
2013,10,30,15,12,8.70
2013,10,30,15,13,8.70
2013,10,30,15,14,8.70
2013,10,30,15,15,8.80
2013,10,30,15,16,8.80
2013,10,30,15,17,8.80
2013,10,30,15,18,8.80
2013,10,30,15,19,8.80
2013,10,30,15,20,8.70
2013,10,30,15,21,8.70
2013,10,30,15,22,8.70
2013,10,30,15,23,8.70
2013,10,30,15,24,8.60
2013,10,30,15,25,8.60
2013,10,30,15,26,8.60
2013,10,30,15,27,8.60
2013,10,30,15,28,8.60
2013,10,30,15,29,8.60
2013,10,30,15,30,8.60
2013,10,30,15,31,8.60
2013,10,30,15,32,8.60
2013,10,30,15,33,8.60
2013,10,30,15,34,8.60
2013,10,30,15,35,8.70
2013,10,30,15,36,8.70
2013,10,30,15,37,8.70
2013,10,30,15,38,8.70
2013,10,30,15,39,8.70
2013,10,30,15,40,8.70
2013,10,30,15,41,8.70
2013,10,30,15,42,8.80
2013,10,30,15,43,8.80
2013,10,30,15,44,8.80
2013,10,30,15,45,8.80
2013,10,30,15,46,8.80
2013,10,30,15,47,8.70
2013,10,30,15,48,8.70
2013,10,30,15,49,8.70
2013,10,30,15,50,8.70
2013,10,30,15,51,8.70
2013,10,30,15,52,8.70
2013,10,30,15,53,8.70
2013,10,30,15,54,8.70
2013,10,30,15,55,8.70
2013,10,30,15,56,8.70
2013,10,30,15,57,8.70
2013,10,30,15,58,8.70
2013,10,30,15,59,8.70
2013,10,30,16,00,8.70
2013,10,30,16,01,8.70
2013,10,30,16,02,8.80
2013,10,30,16,03,8.80
2013,10,30,16,04,8.80
2013,10,30,16,05,8.80
2013,10,30,16,06,8.80
2013,10,30,16,07,8.80
2013,10,30,16,08,8.80
2013,10,30,16,09,8.80
2013,10,30,16,10,8.80
2013,10,30,16,11,8.80
2013,10,30,16,12,8.80
2013,10,30,16,13,8.80
2013,10,30,16,14,8.80
2013,10,30,16,15,8.80
2013,10,30,16,16,8.70
2013,10,30,16,17,8.70
2013,10,30,16,18,8.70
2013,10,30,16,19,8.80
2013,10,30,16,20,8.80
2013,10,30,16,21,8.80
2013,10,30,16,22,8.80
2013,10,30,16,23,8.80
2013,10,30,16,24,8.80
2013,10,30,16,25,8.80
2013,10,30,16,26,8.80
2013,10,30,16,27,8.80
2013,10,30,16,28,8.80
2013,10,30,16,29,8.80
2013,10,30,16,30,8.80
2013,10,30,16,31,8.80
2013,10,30,16,32,8.80
2013,10,30,16,33,8.80
2013,10,30,16,34,8.80
2013,10,30,16,35,8.80
2013,10,30,16,36,8.80
2013,10,30,16,37,8.80
2013,10,30,16,38,8.80
2013,10,30,16,39,8.80
2013,10,30,16,40,8.80
2013,10,30,16,41,8.80
2013,10,30,16,42,8.80
2013,10,30,16,43,8.80
2013,10,30,16,44,8.80
2013,10,30,16,45,8.80
2013,10,30,16,46,8.80
2013,10,30,16,47,8.80
2013,10,30,16,48,8.80
2013,10,30,16,49,8.80
2013,10,30,16,50,8.90
2013,10,30,16,51,8.80
2013,10,30,16,52,8.80
2013,10,30,16,53,8.80
2013,10,30,16,54,8.80
2013,10,30,16,55,8.80
2013,10,30,16,56,8.80
2013,10,30,16,57,8.80
2013,10,30,16,58,8.80
2013,10,30,16,59,8.80
2013,10,30,17,00,8.80
2013,10,30,17,01,8.80
2013,10,30,17,02,8.80
2013,10,30,17,03,8.80
2013,10,30,17,04,8.80
2013,10,30,17,05,8.80
2013,10,30,17,06,8.80
2013,10,30,17,07,8.80
2013,10,30,17,08,8.80
2013,10,30,17,09,8.80
2013,10,30,17,10,8.80
2013,10,30,17,11,8.80
2013,10,30,17,12,8.80
2013,10,30,17,13,8.80
2013,10,30,17,14,8.80
2013,10,30,17,15,8.80
2013,10,30,17,16,8.80
2013,10,30,17,17,8.80
2013,10,30,17,18,8.80
2013,10,30,17,19,8.80
2013,10,30,17,20,8.80
2013,10,30,17,21,8.80
2013,10,30,17,22,8.80
2013,10,30,17,23,8.80
2013,10,30,17,24,8.80
2013,10,30,17,25,8.80
2013,10,30,17,26,8.80
2013,10,30,17,27,8.80
2013,10,30,17,28,8.80
2013,10,30,17,29,8.80
2013,10,30,17,30,8.80
2013,10,30,17,31,8.80
2013,10,30,17,32,8.80
2013,10,30,17,33,8.80
2013,10,30,17,34,8.80
2013,10,30,17,35,8.80
2013,10,30,17,36,8.80
2013,10,30,17,37,8.80
2013,10,30,17,38,8.80
2013,10,30,17,39,8.80
2013,10,30,17,40,8.80
2013,10,30,17,41,8.80
2013,10,30,17,42,8.80
2013,10,30,17,43,8.80
2013,10,30,17,44,8.80
2013,10,30,17,45,8.80
2013,10,30,17,46,8.80
2013,10,30,17,47,8.80
2013,10,30,17,48,8.80
2013,10,30,17,49,8.80
2013,10,30,17,50,8.80
2013,10,30,17,51,8.80
2013,10,30,17,52,8.80
2013,10,30,17,53,8.80
2013,10,30,17,54,8.80
2013,10,30,17,55,8.80
2013,10,30,17,56,8.80
2013,10,30,17,57,8.80
2013,10,30,17,58,8.80
2013,10,30,17,59,8.80
2013,10,30,18,00,8.80
2013,10,30,18,01,8.80
2013,10,30,18,02,8.80
2013,10,30,18,03,8.80
2013,10,30,18,04,8.80
2013,10,30,18,05,8.80
2013,10,30,18,06,8.80